Hourly Data Report for September 18, 2021

IQALUIT CLIMATE
NUNAVUT
Current Station Operator: ECCC - MSC

63°44'50.000" N
68°32'40.000" W
33.50 m
2402592
71321
XFB

Download Data

Hourly Data (September 2021)
Hourly Data Report for September 18, 2021
TIME
LST
Temp Definition
°C
Dew Point Definition
°C
Rel Hum Definition
%
Precip. Amount Definition
mm

Wind Dir Definition
10's deg

Wind Spd Definition
km/h
Visibility Definition
km
Stn Press Definition
kPa
Hmdx Definition


Wind Chill Definition


Weather Definition


00:00 1.5 -0.6 86 0.0 13 9   99.51     LegendNANA
01:00 1.4 0.4 93 0.0 14 12   99.50     LegendNANA
02:00 1.4 0.3 92 0.0 14 13   99.56     LegendNANA
03:00 1.5 0.3 92 0.0 12 10   99.56     LegendNANA
04:00 1.4 0.2 91 0.0 11 10   99.57     LegendNANA
05:00 1.4 0.2 91 0.0 12 6   99.58     LegendNANA
06:00 0.4 -0.4 95 0.7 9 5   99.58     LegendNANA
07:00 1.0 0.0 93 0.4 12 9   99.59     LegendNANA
08:00 1.0 0.1 93 0.1 12 13   99.61     LegendNANA
09:00 1.5 0.6 94 0.3 13 10   99.62     LegendNANA
10:00 1.8 0.7 92 0.0 15 7   99.62     LegendNANA
11:00 2.9 0.8 86 0.0 12 11   99.63     LegendNANA
12:00 3.4 -0.1 78 0.0 9 15   99.65     LegendNANA
13:00 3.1 -0.2 79 0.0 9 18   99.69     LegendNANA
14:00 2.6 0.3 85 0.0 17 10   99.74     LegendNANA
15:00 2.5 0.3 85 0.0 15 4   99.77     LegendNANA
16:00 3.2 0.2 81 0.0 9 16   99.81     LegendNANA
17:00 2.7 0.3 85 0.0 11 12   99.87     LegendNANA
18:00 2.3 0.5 88 0.0 14 4   99.94     LegendNANA
19:00 2.0 0.1 88 0.1 10 8   99.98     LegendNANA
20:00 2.0 0.0 86 0.0 9 3   100.04     LegendNANA
21:00 1.5 -0.3 88 0.1 6 9   100.08     LegendNANA
22:00 1.3 -0.5 88 0.1 5 7   100.11     LegendNANA
23:00 1.3 -0.7 87 0.0 5 7   100.16     LegendNANA

Notes on Data Quality.

Legend

  • E = Estimated
  • M = Missing
  • NA = Not Available*
  • [empty] = Indicates an unobserved value
Date modified: